Theta_e
346 345 348 352 350 351 356 355 351 352 356 356 357 357 357 357 356 354 351 350 348 346 347 346 343 341 339 338 339 339 338 339 340 339 337 338 339 338 337 338 337 337 338 338 338 339 339 338 338 338 338 338 338 338 337 337 337 337 336 336 336 336 336
346 345 348 350 349 352 357 355 352 353 356 356 356 357 357 356 355 353 351 349 348 347 347 345 342 340 337 337 339 339 339 339 340 339 338 338 338 338 337 337 336 336 337 338 338 338 338 338 338 338 338 338 338 338 337 337 336 336 335 335 335 335 335
350 349 351 350 349 354 358 356 353 355 357 356 356 356 356 355 353 352 350 349 348 348 347 343 341 339 338 337 338 339 340 340 339 338 339 339 338 337 336 335 336 336 336 337 337 337 337 337 337 337 337 337 337 337 337 336 336 335 335 335 334 335 335
360 360 358 356 357 356 357 358 356 356 357 356 356 356 355 354 353 351 349 348 349 348 345 342 341 340 339 339 338 339 341 340 338 337 337 337 337 336 335 335 335 336 335 335 336 336 336 336 336 336 336 336 336 336 335 335 335 334 334 334 334 334 335
364 364 359 362 363 358 355 358 357 356 356 355 355 355 355 354 352 350 348 347 348 347 344 342 342 341 341 341 340 340 341 340 339 337 336 336 336 336 335 334 335 335 335 335 335 335 335 335 336 336 336 335 335 335 334 334 334 334 333 334 334 335 336
358 360 355 357 359 358 355 353 353 354 355 356 356 355 354 353 352 350 348 346 346 345 344 343 343 342 342 341 340 339 339 338 337 337 337 337 336 336 335 335 335 334 334 334 334 334 335 335 335 335 335 335 335 335 335 334 334 335 335 335 335 335 336
354 360 356 356 359 357 352 349 352 354 354 356 357 354 352 351 352 350 348 346 345 344 344 345 344 343 343 341 340 339 339 338 337 337 337 338 337 336 335 335 334 333 333 334 334 335 335 335 335 335 335 335 335 335 335 335 335 335 335 335 335 335 336
352 361 357 355 356 352 349 351 356 356 354 353 354 352 350 350 351 350 347 345 345 345 345 345 345 344 342 340 340 340 340 339 339 339 338 338 337 337 335 335 334 333 333 333 333 334 334 334 334 334 334 334 335 335 335 335 335 335 335 335 334 335 335
350 364 360 352 352 350 350 354 356 356 355 354 352 351 348 348 350 350 345 343 344 345 345 344 344 344 342 340 339 339 339 338 339 339 338 338 337 336 335 334 333 332 331 332 332 332 332 332 333 333 333 334 334 335 335 335 335 336 336 334 333 333 334
354 368 366 356 353 354 352 353 356 357 357 355 354 352 348 347 350 348 343 341 342 344 344 343 344 343 342 341 340 338 338 338 338 338 338 337 336 336 335 332 331 330 330 331 330 330 331 331 332 332 332 332 333 333 333 334 335 337 336 334 332 332 332
355 369 369 362 362 362 357 356 359 360 357 355 353 351 347 347 349 348 343 342 342 343 343 342 343 344 343 342 341 339 338 338 339 338 338 337 336 335 334 332 332 329 328 329 330 331 332 331 330 330 330 331 331 331 331 331 333 336 335 332 331 332 332
358 373 374 367 368 368 365 363 362 361 358 355 353 351 349 348 348 346 343 343 343 343 342 340 340 342 343 343 342 340 339 339 339 339 338 337 336 335 333 333 332 330 330 331 332 332 331 330 330 330 330 330 329 330 330 330 331 334 334 332 331 332 331
357 369 372 371 371 368 368 368 365 362 359 357 355 352 351 350 348 347 345 344 344 342 341 338 336 337 339 340 340 340 340 340 339 339 338 337 336 335 334 333 332 332 332 333 333 333 332 331 330 330 330 329 330 330 330 330 330 332 333 333 333 331 330
352 354 365 374 373 367 367 368 365 362 358 356 354 351 352 351 348 347 346 344 343 342 341 339 336 337 338 337 338 338 338 338 339 339 337 337 336 334 334 333 333 333 333 333 334 333 333 332 331 330 330 330 330 330 330 330 330 331 335 337 336 333 330
349 346 356 370 373 371 370 368 366 362 357 354 352 351 352 352 349 348 346 343 341 339 339 338 338 338 338 338 337 336 335 336 337 337 337 336 336 334 334 334 334 334 334 334 334 334 333 332 331 331 331 330 330 330 329 330 330 332 336 338 337 335 333
345 344 351 362 368 371 372 367 365 364 360 355 353 353 353 352 350 347 344 341 338 336 336 336 338 339 339 340 339 337 336 335 335 336 336 336 335 334 334 334 334 335 334 335 335 335 333 332 331 331 330 329 329 329 329 331 332 332 334 334 334 334 334
341 344 347 356 363 366 366 363 363 365 364 358 354 355 354 352 350 346 342 337 334 333 335 337 340 341 341 342 341 339 337 336 336 337 337 336 336 335 335 334 334 335 335 335 336 335 333 332 330 330 329 329 329 329 330 331 331 331 331 331 332 332 332
346 347 350 356 362 365 365 363 364 366 363 357 355 356 354 352 349 343 339 335 333 334 336 339 342 342 342 343 341 339 338 338 338 337 337 337 336 336 336 335 335 335 335 336 336 335 333 331 330 329 329 329 329 329 330 330 329 328 328 329 330 330 329
346 347 351 355 360 365 367 363 364 365 361 357 356 356 354 351 345 340 337 334 336 337 338 340 343 343 343 344 342 340 339 338 338 337 336 336 336 336 336 336 335 336 336 336 336 334 332 330 329 328 328 329 329 329 329 329 328 328 327 327 328 329 328
346 345 346 349 351 358 365 365 363 363 360 356 354 352 351 348 341 337 336 336 337 338 338 339 341 342 344 344 343 341 339 338 337 336 336 335 335 335 336 335 336 336 336 336 335 333 331 329 329 328 328 330 330 329 329 329 329 330 328 327 326 326 327
347 345 345 348 349 355 367 370 367 362 357 354 352 350 347 343 339 336 336 337 338 337 337 339 340 342 344 344 343 343 340 339 337 336 335 335 334 334 335 335 336 336 336 337 336 333 330 329 329 329 329 331 331 330 330 330 329 329 328 327 326 326 326
340 340 342 350 354 361 370 371 367 361 355 353 354 353 348 343 339 338 336 337 337 336 338 341 343 343 343 343 344 344 341 338 336 334 334 334 334 335 335 336 337 336 336 336 336 333 330 329 329 329 328 329 330 329 330 330 328 328 328 327 327 327 326
336 337 343 350 351 355 362 365 365 361 356 355 356 354 349 343 339 336 335 336 336 336 339 343 344 343 342 342 343 343 340 337 335 334 334 334 334 334 335 336 336 335 335 335 335 333 330 329 329 328 328 328 328 328 329 330 329 328 327 327 327 327 325
335 335 341 346 347 352 357 361 364 362 358 358 357 353 348 342 337 334 333 333 335 338 341 342 341 341 341 341 341 341 339 336 334 334 334 333 334 335 334 334 334 333 333 334 334 332 330 329 329 328 329 329 328 328 329 329 328 327 327 328 327 327 326
338 337 342 346 348 353 357 360 364 363 359 357 355 349 342 336 334 335 336 337 338 340 342 342 342 341 341 340 340 339 338 335 333 333 333 333 334 334 334 333 333 332 331 331 331 331 331 330 328 328 329 328 328 328 328 328 328 327 328 328 327 326 326
340 341 344 345 348 353 357 360 363 362 358 355 351 343 336 333 332 334 338 340 340 340 341 341 341 341 341 340 339 339 338 335 333 332 332 333 334 335 334 333 332 331 330 329 331 331 330 329 329 328 328 327 327 327 328 329 328 328 328 328 326 324 324
340 341 338 338 345 353 357 360 362 360 355 351 344 337 333 332 332 333 338 341 340 339 340 340 340 340 338 338 337 337 337 335 333 332 332 333 334 334 332 331 330 330 329 329 331 331 329 329 330 330 329 329 328 327 327 329 329 328 328 327 324 323 324
339 338 336 341 350 356 358 359 358 356 350 342 336 335 334 333 334 337 341 342 340 338 337 336 337 337 336 335 335 335 337 335 333 332 333 334 334 332 330 330 331 332 331 331 331 331 330 330 331 331 331 328 327 327 326 326 327 328 328 326 324 324 325
347 344 344 351 357 356 355 351 348 348 345 338 334 335 335 335 339 342 341 342 344 342 340 340 338 336 335 334 334 335 335 334 333 334 334 334 332 330 330 332 333 332 332 332 332 332 331 332 332 332 331 328 327 326 324 323 325 327 328 327 326 326 326
353 350 349 354 354 351 348 344 343 343 341 338 335 334 335 338 341 341 342 346 346 344 343 343 340 337 337 337 336 336 334 334 335 335 335 334 331 331 332 333 332 331 331 332 332 333 333 332 331 332 330 327 325 324 323 323 325 326 327 327 327 327 325
351 349 348 349 350 348 347 345 343 341 343 344 341 341 343 342 340 342 347 347 344 342 342 339 336 336 337 337 337 336 336 337 336 335 334 333 332 331 331 331 332 332 331 331 331 331 333 332 331 331 330 328 326 325 323 323 324 325 326 326 326 325 323
351 348 345 344 345 345 344 343 343 344 348 347 345 346 347 344 343 346 347 344 342 342 341 338 335 335 334 335 338 339 337 334 333 333 333 331 331 331 329 329 330 330 330 330 329 330 331 331 331 331 330 329 329 327 323 323 325 325 325 325 324 322 321
349 347 345 342 341 341 340 342 344 345 347 347 343 342 341 339 339 338 337 339 340 341 341 341 339 336 336 336 336 336 335 332 332 334 333 331 330 330 328 329 330 329 329 330 329 330 331 330 330 330 329 329 329 327 325 325 325 323 322 322 321 321 320
349 348 346 343 341 341 342 344 345 344 346 347 342 337 336 337 336 331 331 335 337 337 340 344 341 338 338 337 335 333 334 333 332 331 330 330 331 330 329 330 330 329 330 328 327 328 329 328 328 328 326 327 328 327 327 326 322 320 319 318 319 319 318
344 343 345 345 344 342 341 342 344 346 347 346 342 339 337 338 336 331 331 334 335 336 340 343 341 339 338 337 336 335 335 333 330 329 329 331 332 331 328 327 327 327 327 325 324 324 324 324 324 324 323 325 325 324 325 322 319 318 317 316 318 318 315
344 343 345 346 346 345 344 344 345 346 345 344 341 339 338 338 335 331 331 335 336 337 339 340 339 337 335 334 334 334 334 332 331 330 330 331 331 330 327 325 324 324 324 323 322 322 321 321 321 320 321 322 321 319 320 318 316 316 316 316 317 317 315
345 344 344 345 345 344 343 344 345 343 341 340 339 337 335 335 334 332 332 335 335 336 338 338 337 336 334 332 331 332 332 331 330 330 330 329 329 329 328 325 324 323 322 321 321 320 320 320 319 319 320 320 318 316 316 315 315 315 315 316 318 318 316
341 340 339 341 344 342 341 343 344 341 338 338 337 333 331 332 332 332 333 333 334 335 337 337 337 336 334 332 332 333 332 330 330 330 329 328 327 327 329 328 325 321 319 320 320 319 319 319 318 318 318 318 317 316 315 314 314 314 314 315 317 317 316
Wind_Speed
18 16 14 13 13 13 12 15 19 20 21 22 24 25 23 22 23 23 23 23 22 20 18 16 14 12 11 10 10 9 7 7 7 6 4 4 4 3 3 4 4 4 6 7 7 7 8 8 8 8 8 8 9 9 9 9 10 10 10 11 11 11 12
15 14 12 12 14 13 13 18 21 21 22 23 23 24 24 23 24 24 24 24 23 21 20 17 15 13 11 11 10 9 8 8 8 7 6 6 6 6 5 4 4 5 6 6 7 8 8 8 8 8 9 9 10 10 10 10 11 11 11 11 11 11 12
10 11 10 10 13 13 13 17 20 21 22 24 25 25 25 25 25 25 24 25 23 22 21 19 16 14 12 11 10 10 10 9 8 8 8 7 7 6 5 4 4 5 5 6 7 7 8 8 9 10 10 11 11 10 11 11 11 11 11 12 12 11 11
10 7 5 6 9 12 14 16 19 21 23 25 27 27 26 26 27 26 25 26 24 23 22 20 17 15 13 12 11 10 11 10 9 8 8 7 6 6 5 5 5 5 5 6 7 7 8 9 10 11 11 12 12 12 12 12 11 11 12 12 12 12 11
12 9 6 6 5 8 12 15 20 24 25 26 27 27 27 27 26 26 25 26 25 23 23 20 18 16 14 13 12 11 11 11 10 9 9 8 7 7 6 5 5 5 6 6 7 7 8 9 10 11 12 12 13 13 13 13 12 12 12 12 13 12 11
11 12 11 10 7 9 12 17 25 28 27 27 29 28 28 27 27 26 25 25 24 23 22 20 18 17 15 14 12 11 11 11 10 10 9 9 8 8 7 6 6 7 7 8 8 8 8 10 11 12 13 13 14 14 14 13 13 13 13 13 13 13 11
9 11 13 12 10 10 13 17 24 28 28 28 29 28 29 28 27 27 25 25 24 23 23 21 19 18 17 15 14 13 12 11 11 11 10 10 9 8 7 8 9 10 9 10 10 9 9 10 11 12 13 14 14 15 15 15 15 14 13 13 13 13 13
8 10 12 14 14 14 16 16 22 26 27 28 28 28 29 29 28 27 25 24 23 23 23 20 19 19 18 16 15 14 13 12 12 12 11 10 10 10 10 12 14 13 12 12 11 10 10 10 11 12 13 14 15 16 16 16 16 15 14 13 13 13 14
4 7 11 13 14 16 16 16 21 25 24 26 27 28 29 28 28 27 25 23 23 23 22 20 19 19 18 17 15 14 13 12 12 12 12 11 11 11 10 11 14 14 13 12 10 9 10 11 12 13 13 15 16 16 17 16 16 15 15 14 13 12 14
1 7 11 10 10 12 15 17 20 21 21 24 26 26 28 28 28 28 25 23 23 22 21 20 21 20 19 18 16 14 14 13 12 12 12 12 12 11 10 10 11 8 7 8 8 9 11 12 13 13 14 15 15 16 16 16 15 14 15 16 16 15 15
3 7 11 10 10 11 14 17 16 15 19 24 24 25 27 27 28 29 27 26 25 23 22 22 22 23 22 19 17 15 15 14 13 13 13 12 11 10 10 9 9 7 6 8 8 8 10 12 12 14 15 15 14 15 16 16 15 14 15 17 18 18 18
1 6 9 9 9 10 12 13 13 14 18 23 26 27 27 27 29 29 28 28 24 21 23 22 20 23 24 21 18 17 16 15 15 14 14 13 12 10 9 8 9 10 8 6 6 8 10 11 13 15 15 15 14 13 15 16 16 15 15 17 17 18 17
2 4 8 8 8 10 11 11 12 15 19 23 25 26 25 27 29 28 26 25 23 21 24 24 21 21 21 19 17 18 18 16 16 15 13 13 12 10 9 9 9 9 9 9 9 10 11 12 14 14 14 14 14 14 15 16 16 15 15 16 17 17 17
6 5 6 8 9 11 11 12 13 15 18 23 24 24 23 25 27 26 24 24 24 24 24 25 23 21 19 17 15 16 16 15 15 15 14 13 12 10 9 9 8 9 10 11 11 11 12 13 14 14 14 16 17 17 16 16 16 14 14 15 16 16 16
6 7 8 8 9 10 10 10 12 14 18 22 24 24 24 24 24 24 24 23 24 24 24 23 22 21 19 17 14 13 13 13 13 14 13 13 12 10 10 9 9 9 10 10 11 12 13 14 14 15 16 16 15 15 14 14 14 12 12 13 13 14 15
6 7 9 11 10 10 10 10 11 13 16 21 25 26 26 25 25 24 24 25 26 26 24 22 21 20 19 17 15 14 14 14 14 13 13 13 12 11 10 9 9 10 11 11 12 13 13 14 15 15 14 14 14 15 14 13 12 11 11 11 13 13 14
9 9 8 12 14 13 12 13 13 12 13 19 24 25 25 25 25 26 26 28 27 23 21 20 20 21 20 17 16 16 16 16 16 15 14 14 13 12 11 11 11 11 12 12 13 14 14 14 14 13 13 14 14 15 13 12 13 13 11 11 12 13 13
8 10 7 7 11 13 15 14 13 12 14 19 24 27 28 26 27 29 30 30 26 22 19 19 21 23 20 18 17 17 18 19 18 17 16 15 14 14 12 12 12 12 13 14 14 14 14 13 13 13 13 14 14 15 14 14 17 17 14 13 13 13 14
9 9 7 5 5 10 15 14 11 13 15 16 17 20 23 26 31 34 34 30 25 21 18 20 22 22 21 19 18 19 20 20 19 18 16 15 15 14 13 12 13 13 13 14 14 14 14 13 13 12 13 14 15 17 17 16 17 18 16 15 13 12 14
8 8 9 8 7 7 11 13 11 14 18 19 17 15 13 19 31 35 31 25 22 17 18 23 21 21 21 21 21 21 22 21 20 18 16 15 15 14 13 13 13 14 14 14 14 14 15 14 13 12 13 14 14 15 16 15 16 16 16 14 13 13 15
6 8 8 7 8 7 8 12 12 15 22 28 28 24 20 25 31 30 22 16 15 14 22 24 22 22 23 23 23 23 23 22 21 18 16 15 14 13 13 13 14 14 14 14 14 14 15 15 13 13 13 13 13 13 13 14 15 14 14 13 13 14 15
7 9 8 6 8 7 7 14 17 20 26 29 27 25 28 29 27 23 15 10 6 19 26 24 24 24 24 24 24 24 23 21 19 17 16 14 13 12 12 12 13 14 15 16 15 15 17 16 15 14 14 13 14 14 14 14 15 15 15 14 13 13 14
8 9 5 5 6 7 8 13 20 28 31 29 26 25 27 27 25 21 12 6 17 27 26 23 24 24 23 24 23 22 22 20 18 17 16 15 13 12 12 11 11 13 15 16 16 17 17 17 16 16 14 15 16 17 17 16 16 16 16 14 12 12 15
8 8 4 3 5 6 8 8 16 26 29 27 27 24 23 29 28 22 17 19 25 27 24 23 23 23 23 23 21 20 21 20 19 18 16 15 14 12 11 11 12 13 13 14 16 18 17 16 17 17 16 17 18 18 18 18 16 16 14 12 11 14 16
5 5 1 1 5 6 8 8 13 21 25 25 21 18 26 29 25 22 21 21 23 24 23 23 23 23 23 21 18 18 18 17 18 18 15 14 13 12 12 13 13 12 11 13 16 17 16 16 17 17 17 19 19 19 19 18 16 12 9 8 11 15 17
2 3 3 1 7 5 7 9 12 19 23 23 24 30 31 23 17 17 19 22 23 23 23 24 25 23 22 19 18 18 17 16 16 16 15 13 11 11 13 13 12 10 10 14 16 15 15 16 17 19 21 20 19 19 19 17 13 9 7 10 14 16 15
1 1 1 5 6 6 8 11 14 19 19 18 26 34 28 19 17 19 23 24 22 19 17 19 21 21 20 19 17 18 18 16 15 15 13 12 11 12 11 11 12 12 12 14 14 14 15 17 18 20 19 18 20 22 21 18 13 10 10 13 15 15 13
5 4 5 6 8 11 8 5 9 16 20 22 25 25 18 12 16 21 23 20 18 15 12 12 14 16 18 18 17 17 18 16 15 14 12 11 11 10 9 9 9 10 12 13 13 13 16 18 18 17 13 15 19 19 18 17 16 14 14 14 14 13 12
1 2 2 4 8 9 10 13 10 5 15 24 22 18 14 15 20 20 15 11 8 7 5 4 4 7 10 14 16 17 17 14 13 12 12 11 10 7 5 6 6 8 12 14 13 14 16 18 18 15 11 11 12 11 10 12 12 12 14 14 12 11 11
5 7 7 7 7 9 15 18 9 2 9 19 19 17 18 22 19 11 6 3 4 5 6 5 3 2 3 5 10 14 16 14 13 13 12 10 9 7 4 4 5 10 14 15 13 12 13 14 14 11 7 7 8 9 10 10 10 9 10 11 11 10 11
4 6 8 5 5 11 17 21 19 10 9 13 14 11 11 11 8 8 6 6 7 6 6 6 7 9 10 9 8 10 10 9 10 9 9 8 6 5 3 3 5 8 11 11 11 12 12 12 10 7 6 5 6 8 11 10 10 8 6 8 11 12 14
6 7 11 6 4 9 17 19 18 12 11 12 9 8 11 12 12 12 11 9 7 7 7 6 7 9 11 12 10 4 4 6 5 4 6 6 4 3 3 4 7 9 11 11 11 11 11 11 8 5 5 5 4 7 10 10 7 5 5 9 13 14 16
9 8 8 2 8 9 14 17 15 12 12 11 8 8 12 15 12 9 7 6 5 4 2 1 2 4 7 10 8 6 6 6 6 7 6 5 4 4 4 5 8 10 9 8 6 6 7 9 7 5 6 6 4 6 8 7 4 5 8 12 14 14 15
10 8 4 3 7 9 11 13 14 13 11 9 8 5 5 7 6 6 4 1 4 3 4 5 5 5 9 12 12 11 8 7 8 7 5 3 1 2 3 5 7 5 2 1 3 4 5 7 8 7 7 6 4 5 5 3 3 8 12 13 13 12 14
8 1 1 6 9 11 13 14 12 12 12 12 11 8 5 4 2 1 2 2 3 3 6 8 8 9 11 11 9 8 7 6 4 3 4 3 1 2 4 5 5 3 1 1 3 4 5 5 6 7 7 4 3 4 4 3 5 10 12 12 11 10 11
11 11 9 11 13 15 17 15 13 13 14 13 13 11 9 8 6 6 6 8 7 5 7 8 7 7 8 8 8 7 8 7 5 4 4 4 5 7 6 3 1 0 1 1 3 4 5 5 5 4 3 3 4 4 4 5 7 9 9 10 10 6 6
10 11 11 13 13 14 16 16 17 17 15 13 12 11 10 9 7 6 6 8 7 5 5 5 5 5 6 7 4 4 6 9 7 5 6 6 6 7 7 6 4 3 3 3 4 4 5 5 4 3 3 5 5 5 6 6 8 9 9 10 7 3 4
10 12 11 10 11 13 14 14 15 16 15 14 12 10 8 8 8 7 7 7 6 5 5 4 5 5 6 5 1 2 2 5 6 5 5 6 5 4 6 7 7 7 6 5 4 4 4 5 6 6 5 4 4 5 7 8 10 11 11 10 7 4 3
Wind_Direction
190 195 188 177 182 182 171 169 172 174 170 165 163 167 173 175 171 168 169 171 172 172 172 174 179 182 185 187 184 185 193 198 197 203 215 215 219 230 233 241 265 286 293 298 303 304 306 306 305 305 303 299 300 300 301 304 309 312 315 318 320 319 319
185 189 193 181 180 183 173 171 173 173 169 164 165 168 174 178 173 171 172 172 173 175 173 175 180 184 188 189 186 188 195 200 200 198 207 217 215 216 223 231 259 281 286 291 298 300 301 304 305 305 302 300 299 297 298 301 305 308 310 314 315 314 315
180 184 191 184 184 180 170 173 176 172 168 166 169 173 177 179 174 174 175 173 175 176 174 176 181 184 187 188 186 191 198 200 203 203 206 215 211 207 218 235 252 269 282 290 299 303 304 305 304 304 303 301 299 296 295 294 295 300 304 308 310 310 310
166 176 183 175 185 180 168 172 173 170 170 171 172 176 180 180 176 176 178 176 176 176 176 178 180 184 187 189 191 195 198 200 204 209 210 214 212 207 218 233 245 264 287 301 307 305 304 303 303 302 301 300 298 294 291 289 289 292 295 299 304 305 305
159 174 181 142 161 194 176 170 174 176 177 177 176 178 180 177 174 178 180 178 178 178 178 178 178 183 187 190 195 196 197 202 204 207 210 211 206 205 218 233 245 264 281 291 294 293 299 301 298 298 298 297 297 294 293 292 291 292 292 293 297 300 300
162 172 175 151 159 203 187 177 183 183 180 179 178 179 181 179 178 182 181 179 180 179 179 179 178 182 187 191 197 195 193 200 204 205 207 205 204 209 220 231 240 251 259 263 269 275 287 292 290 291 293 292 293 293 293 295 294 292 292 292 294 295 293
159 164 173 160 156 188 193 187 184 182 183 182 178 180 185 185 184 186 182 179 181 179 179 181 179 181 187 192 197 195 193 200 204 205 205 204 207 210 216 232 239 243 247 247 251 258 267 276 279 282 286 288 289 289 291 293 294 296 297 294 293 293 293
162 165 177 171 163 182 199 192 182 182 184 182 179 182 187 189 188 187 183 181 183 182 180 181 180 182 188 192 196 195 196 203 205 206 208 206 210 214 221 235 239 239 243 243 247 253 256 266 273 277 281 284 285 287 289 290 292 296 296 294 295 294 294
174 151 161 178 178 183 192 186 180 182 180 180 183 186 189 192 189 187 185 183 186 186 182 181 180 182 187 190 195 197 197 203 207 208 211 210 214 222 230 245 249 244 239 240 249 263 268 270 270 270 276 280 280 281 282 285 288 292 290 287 292 294 291
120 124 137 178 194 178 176 178 181 183 181 185 189 189 191 191 186 186 189 190 192 188 183 184 181 179 184 189 193 198 197 200 208 212 215 216 219 224 231 250 260 254 236 242 260 276 281 280 276 277 280 279 279 282 282 282 282 284 287 286 285 284 284
157 148 146 181 198 180 172 174 181 183 180 185 190 193 197 193 183 184 191 195 193 186 185 190 183 175 180 188 192 196 196 198 208 213 217 222 226 230 235 253 273 283 281 276 281 287 290 293 292 292 287 280 281 287 290 290 284 277 283 291 288 282 282
199 152 153 176 188 180 169 167 180 186 184 189 193 197 200 194 183 184 194 194 185 181 187 186 176 172 179 188 192 193 195 198 205 214 220 223 227 235 244 257 269 276 286 302 311 303 298 299 297 294 293 289 289 290 292 298 293 277 278 291 291 283 282
219 158 158 167 170 171 172 175 182 185 190 194 196 199 200 192 185 187 192 182 172 187 192 177 169 174 180 190 193 189 193 199 204 213 222 226 228 233 240 252 264 278 299 316 315 306 299 295 291 294 302 305 304 303 300 301 297 284 278 287 289 282 280
191 185 170 159 160 169 181 191 186 186 194 195 198 204 200 188 183 185 183 172 171 184 179 163 167 178 182 192 195 187 191 200 205 211 218 224 228 230 235 248 261 274 287 293 295 295 290 288 291 296 302 302 301 301 298 295 296 288 277 281 286 282 279
203 202 184 160 165 181 191 198 190 188 195 195 198 202 195 187 182 175 170 167 165 162 157 158 171 177 180 191 195 192 196 203 207 211 215 220 224 227 233 241 248 256 265 271 278 283 283 286 292 294 295 296 297 299 299 299 300 291 272 272 278 276 278
262 235 196 172 178 191 195 203 203 196 192 192 194 192 186 184 177 164 158 156 153 152 157 167 176 179 183 191 194 197 201 206 210 211 213 217 219 223 230 236 242 250 255 259 267 275 279 282 286 287 290 295 299 301 300 295 291 284 276 275 273 270 276
274 268 226 188 184 186 192 205 211 204 188 185 187 184 181 179 169 157 152 153 154 156 160 168 179 184 186 189 195 198 201 206 210 211 213 217 218 221 227 235 243 250 253 256 262 268 271 275 280 283 285 289 294 296 293 286 283 284 284 284 280 274 272
273 273 260 207 189 187 191 196 198 196 186 183 184 182 180 174 163 155 154 157 158 153 155 175 188 186 185 191 197 199 202 206 208 208 211 214 218 224 228 236 246 253 255 258 261 266 269 273 277 281 284 286 287 286 284 284 285 285 282 280 283 280 274
286 284 285 273 232 198 186 183 186 186 178 175 184 188 182 169 159 156 157 158 152 143 161 193 194 182 185 194 199 201 205 206 206 206 209 213 219 225 231 238 246 254 258 262 265 267 269 270 273 279 285 285 282 282 282 281 280 283 283 280 279 276 275
280 281 276 275 270 230 190 180 177 166 159 163 177 189 188 170 161 158 157 151 140 148 192 207 194 183 188 194 199 205 205 205 207 206 208 214 219 224 230 238 247 255 259 264 268 270 270 268 267 274 280 280 280 285 288 283 277 275 276 279 281 280 279
267 265 267 265 264 253 199 177 161 149 159 173 180 180 183 180 167 155 145 128 126 174 211 209 193 189 193 194 200 204 203 203 205 204 208 214 219 225 232 238 247 254 259 262 265 270 273 272 270 272 275 276 277 281 283 282 280 276 275 284 291 289 285
257 256 250 229 247 263 205 179 166 161 171 179 180 177 178 175 154 125 99 81 152 208 216 206 193 192 192 194 200 202 201 202 201 202 209 213 218 229 238 243 246 251 260 263 261 264 269 271 271 271 271 273 275 275 275 279 282 281 281 287 291 290 292
270 274 266 218 240 253 216 186 169 171 176 176 179 180 171 154 128 107 103 171 206 213 211 198 191 192 191 195 200 199 198 200 200 203 207 211 219 230 240 248 252 256 263 262 258 260 264 267 271 271 270 274 276 276 274 275 278 281 282 285 290 298 303
265 280 288 251 254 239 217 191 169 172 173 173 183 182 154 136 132 137 162 191 202 206 203 194 193 195 196 197 199 198 197 198 201 203 204 208 215 224 235 250 256 257 262 263 260 260 263 268 274 273 270 272 275 275 273 273 277 282 280 282 295 306 309
257 283 316 264 263 231 200 189 169 161 160 165 170 145 121 126 139 152 172 195 206 201 194 194 196 197 197 199 200 200 200 201 202 203 205 210 212 221 236 248 250 248 256 268 267 266 267 270 275 276 274 273 273 273 270 271 280 288 289 298 309 311 310
315 332 55 312 265 223 180 181 160 148 156 163 144 123 122 133 146 163 187 207 212 203 195 196 197 195 196 200 202 203 205 208 207 203 206 213 214 221 232 242 247 248 261 272 271 270 274 276 277 277 278 281 288 289 285 281 281 285 296 311 315 315 313
194 261 250 265 243 176 181 189 158 144 149 141 122 121 132 147 158 182 207 213 210 207 199 192 192 194 198 200 200 202 206 210 212 208 208 214 217 220 231 245 252 253 263 271 273 278 285 286 282 280 288 307 318 320 323 324 316 301 301 315 322 322 320
196 215 233 218 172 161 174 161 126 133 132 119 114 120 131 156 184 202 210 205 203 210 204 192 193 196 199 202 203 206 208 209 210 206 200 201 208 219 240 255 259 268 279 278 278 285 290 290 288 291 312 327 318 312 321 328 322 315 316 323 327 328 327
99 46 36 128 134 128 100 74 53 80 117 115 118 129 151 193 210 209 202 189 188 197 186 177 188 190 202 211 210 209 211 210 205 198 190 190 197 210 235 243 248 278 285 281 280 284 286 290 296 303 317 321 310 311 323 320 313 315 325 329 328 329 332
44 50 54 79 99 99 104 111 115 82 106 124 140 159 185 205 205 185 165 125 75 71 67 57 30 332 299 252 223 220 219 209 195 188 183 180 183 189 211 237 241 252 261 267 278 284 283 288 297 305 318 325 332 348 350 333 311 306 320 328 325 324 324
83 86 80 84 142 136 129 139 149 143 119 132 146 159 181 195 170 116 75 40 40 28 9 0 332 318 322 318 289 257 224 183 158 161 168 164 163 176 214 266 260 254 256 262 272 277 278 282 290 303 326 336 353 5 360 341 317 309 318 318 314 317 319
47 57 58 22 255 161 137 143 150 133 100 94 90 83 88 89 85 79 64 47 37 13 350 340 324 315 312 309 305 277 165 140 130 158 183 181 179 200 233 246 251 261 266 265 267 273 277 282 285 297 318 328 5 16 1 348 338 345 343 319 315 321 327
32 30 52 3 245 192 148 143 137 117 103 102 94 70 57 45 32 28 35 57 76 57 13 312 331 313 285 275 260 207 175 173 173 176 180 180 198 224 236 242 252 263 267 267 281 299 305 308 314 323 328 333 349 355 349 353 4 358 341 329 326 333 342
38 10 26 134 190 177 143 129 124 126 130 121 106 88 32 6 333 302 296 195 139 133 150 145 141 182 210 221 219 206 188 164 151 157 169 170 193 222 228 244 258 271 301 359 343 345 340 334 337 340 337 340 350 344 345 12 9 345 345 344 337 339 351
82 49 103 113 131 137 122 110 114 127 130 119 116 131 143 132 135 321 346 85 116 139 155 153 165 186 195 207 214 194 165 156 161 181 184 169 178 217 218 235 254 273 35 10 332 335 340 342 345 342 342 360 26 4 10 42 4 343 345 344 334 337 356
146 169 158 121 115 118 115 115 119 117 113 112 115 117 113 105 82 38 46 78 92 116 150 162 178 192 201 220 223 196 178 191 215 216 190 194 219 212 194 183 214 310 51 27 9 2 357 359 357 349 360 68 76 33 22 19 354 344 347 343 334 335 359
153 145 122 106 103 103 107 117 121 115 111 113 116 118 120 115 101 84 86 91 88 96 127 152 180 207 224 235 231 192 195 212 225 222 215 229 239 213 175 146 117 80 58 53 42 21 15 31 40 37 74 110 94 40 22 12 360 359 3 1 357 13 29
134 119 111 115 124 125 125 125 121 118 123 127 126 127 124 114 105 100 94 90 92 102 123 151 187 217 235 243 278 12 259 241 245 241 232 242 252 225 184 164 141 113 88 70 65 57 55 70 74 64 65 84 79 49 38 30 22 18 13 12 22 46 39